This demonstration page uses our WeatherBlox Daily Observations layout. Learn more.

41.55636, -103.73856

Hourly Observations for August 4, 2019

Temp ( °F °C ) Dew Point ( °F °C ) Humidity (%) Winds ( mph kmh ) Pressure ( in mb ) Visibility ( mi km ) Precip ( " mm )
12:53 am 00:53 Clear with Thunderstorms 69 20.6 64 17.8 84 84 ESE 3 6 29.97 1015 10 16.09344 0 0
1:12 am 01:12 Partly Cloudy 70 21 64 18 83 83 Calm 29.94 1014 10 16.09344 0 0
1:53 am 01:53 Clear 68 20 64 17.8 87 87 E 6 9 29.94 1014 10 16.09344 0.001 0.001
2:53 am 02:53 Clear 67 19.4 63 17.2 87 87 E 9 15 29.94 1014 10 16.09344 0 0
3:53 am 03:53 Clear 67 19.4 62 16.7 84 84 E 10 17 29.91 1013 10 16.09344 0 0
4:53 am 04:53 Clear 65 18.3 62 16.7 90 90 E 7 11 29.94 1014 10 16.09344 0 0
5:53 am 05:53 Sunny 64 17.8 61 16.1 90 90 E 6 9 29.97 1015 10 16.09344 0 0
6:53 am 06:53 Sunny 65 18.3 62 16.7 90 90 E 8 13 29.97 1015 10 16.09344 0 0
7:53 am 07:53 Sunny 70 21.1 63 17.2 79 79 ESE 8 13 29.97 1015 10 16.09344 0 0
8:53 am 08:53 Sunny 76 24.4 65 18.3 69 69 ESE 6 9 29.94 1014 10 16.09344 0 0
9:53 am 09:53 Sunny 80 26.7 65 18.3 60 60 SE 6 9 29.94 1014 10 16.09344 0 0
10:53 am 10:53 Sunny 85 29.4 67 19.4 55 55 E 8 13 29.94 1014 10 16.09344 0 0
11:53 am 11:53 Sunny 92 33.3 64 17.8 40 40 SE 10 17 29.91 1013 10 16.09344 0 0
12:53 pm 12:53 Sunny 97 36.1 54 12.2 24 24 SSE 15 24 29.85 1011 10 16.09344 0 0
1:53 pm 13:53 Sunny 99 37.2 52 11.1 21 21 S 18 30 29.85 1011 10 16.09344 0 0
2:53 pm 14:53 Sunny 95 35 53 11.7 24 24 S 12 19 29.83 1010 10 16.09344 0 0
3:26 pm 15:26 Mostly Cloudy with Nearby Thunderstorms 79 26 63 17 58 58 S 17 28 29.77 1008 10 16.09344 0 0
3:43 pm 15:43 Mostly Cloudy 83 28.3 60 15.6 46 46 SSW 14 22 29.74 1007 10 16.09344 0.02 0.508
3:53 pm 15:53 Mostly Cloudy 83 28.3 61 16.1 48 48 SSW 14 22 29.85 1011 10 16.09344 0.02 0.508
4:53 pm 16:53 Sunny 93 33.9 59 15 32 32 S 7 11 29.83 1010 10 16.09344 0.001 0.001
5:53 pm 17:53 Sunny 95 35 57 13.9 28 28 SW 5 7 29.8 1009 10 16.09344 0 0
6:53 pm 18:53 Sunny 91 32.8 60 15.6 35 35 SSE 5 7 29.83 1010 10 16.09344 0 0
7:26 pm 19:26 Sunny 77 25 64 17.8 64 64 NE 18 30 29.74 1007 10 16.09344 0 0
7:53 pm 19:53 Sunny 76 24.4 64 17.8 67 67 E 17 28 29.88 1012 10 16.09344 0 0
8:53 pm 20:53 Clear 72 22.2 62 16.7 71 71 E 16 26 29.91 1013 10 16.09344 0 0
9:53 pm 21:53 Clear 71 21.7 63 17.2 76 76 ESE 15 24 29.94 1014 10 16.09344 0 0
10:53 pm 22:53 Mostly Cloudy 69 20.6 63 17.2 81 81 SE 14 22 29.94 1014 10 16.09344 0 0
11:53 pm 23:53 Partly Cloudy with Light Rain 69 20.6 64 17.8 84 84 VRB 7 11 29.94 1014 10 16.09344 0.001 0.001

Powered by AerisWeather